Hourly Weather Roundup
Issued by NWS Central Illinois

Home | Current Version | Previous Version | Text Only | Print | Product List | Glossary On
Versions: 1 2 3 4 5 6 7 8 9 10 11 12 13 14 15 16 17 18 19 20 21 22 23 24 25 26 27 28 29 30 31 32 33 34 35 36 37 38 39 40 41 42 43 44 45 46 47 48 49 50
000
NZUS43 KILX 250710
HWRILX

AREA WEATHER ROUNDUP
NATIONAL WEATHER SERVICE, LINCOLN IL
200 AM CDT FRI JUL 25 2014


CITY           SKY/WX    TMP DP  RH WIND       PRES   REMARKS
BLOOMINGTON    PTCLDY    57  53  86 SE8       30.08R
CHAMPAIGN      CLEAR     57  54  89 E5        30.07R
DECATUR        CLEAR     60  55  83 CALM      30.07R
FLORA          CLEAR     58  57  96 CALM      30.07R
GALESBURG      CLEAR     60  56  84 CALM      30.04S
JACKSONVILLE   CLEAR     59  55  88 SE5       30.06F
LACON          CLEAR     58  53  82 CALM      30.06R
LAWRENCEVILLE  CLEAR     60  58  92 N3        30.07R
LITCHFIELD     CLEAR     59  55  86 E5        30.06S
$$


CITY           SKY/WX    TMP DP  RH WIND       PRES   REMARKS
LINCOLN        CLEAR     59  56  91 CALM      30.05R
MACOMB         CLEAR     56  55  95 SE3       30.07R
MATTOON        CLEAR     60  57  89 CALM      30.06F
MT CARMEL AP   CLEAR     57  55  94 CALM      30.07R
OLNEY-NOBLE AP CLEAR     55  55 100 CALM      30.07R
PARIS          CLEAR     53  53  98 CALM      30.07S
PEORIA         CLEAR     66  53  63 S3        30.06S
PONTIAC        CLEAR     57  55  94 SE3       30.07S
RANTOUL        CLEAR     61  54  76 CALM      30.09R
ROBINSON       CLEAR     56  56  98 CALM      30.08R FOG
SPRINGFIELD    CLEAR     58  55  90 CALM      30.07R
TAYLORVILLE    CLEAR     55  54  94 CALM      30.06S
$$

...REGIONAL REPORTS...


CITY           SKY/WX    TMP DP  RH WIND       PRES   REMARKS
CHICAGO O`HARE PTCLDY    59  48  67 SW3       30.07R
KANKAKEE       CLEAR     53  51  93 CALM      30.07S
MOLINE         CLEAR     61  55  81 S6        30.04S
MOUNT VERNON   CLEAR     55  52  88 CALM      30.06S
PITTSFIELD     CLEAR     59  55  87 CALM      30.06S
QUINCY         CLEAR     62  54  74 SE8       30.03F
ROCKFORD       CLEAR     58  49  72 S5        30.09S
$$


CITY           SKY/WX    TMP DP  RH WIND       PRES   REMARKS
BURLINGTON     CLEAR     63  57  81 SE5       30.03S
CEDAR RAPIDS   PTCLDY    63  57  81 SE7       29.99F
DES MOINES     CLOUDY    68  59  73 SE13      29.89F
KIRKSVILLE     CLEAR     63  56  78 SE12      29.99F
OTTUMWA        CLEAR     65  57  75 SE13      29.95F
ST LOUIS       PTCLDY    67  55  65 E3        30.05R
$$


CITY           SKY/WX    TMP DP  RH WIND       PRES   REMARKS
TERRE HAUTE    CLEAR     54  52  93 CALM      30.06F
EVANSVILLE     CLEAR     63  58  83 N3        30.05R
INDIANAPOLIS   CLEAR     59  53  80 CALM      30.06S
LAFAYETTE      CLEAR     54  53  97 CALM      30.07S
MADISON        CLOUDY    64  55  72 S10       30.05F
MILWAUKEE      PTCLDY    60  46  59 S5        30.06R
$$




USA.gov is the U.S. government's official web portal to all federal, state and local government web resources and services.